This demonstration page uses our WeatherBlox Daily Observations layout. Learn more.

41.55636, -103.73856

Hourly Observations for December 24, 2015

Temp ( °F °C ) Dew Point ( °F °C ) Humidity (%) Winds ( mph kmh ) Pressure ( in mb ) Visibility ( mi km ) Precip ( " mm )
12:53 am 00:53 Clear 21 -6.1 13 -10.6 71 71 NW 16 26 29.62 1003 10 16.0934 0 0
1:53 am 01:53 Clear 20 -6.7 16 -8.9 85 85 W 9 15 29.68 1005 10 16.0934 0 0
2:53 am 02:53 Clear 20 -6.7 16 -8.9 85 85 WNW 8 13 29.74 1007 10 16.0934 0 0
3:53 am 03:53 Clear 17 -8.3 13 -10.6 84 84 Calm 29.78 1008 10 16.0934 0 0
4:53 am 04:53 Clear 14 -10 11 -11.7 88 88 NNW 6 9 29.81 1009 10 16.0934 0 0
5:53 am 05:53 Clear 14 -10 11 -11.7 88 88 NNW 3 6 29.83 1010 10 16.0934 0 0
6:53 am 06:53 Clear 16 -8.9 9 -12.8 74 74 WNW 7 11 29.84 1010 10 16.0934 0 0
7:53 am 07:53 Sunny 21 -6.1 10 -12.2 62 62 WNW 10 17 29.84 1011 10 16.0934 0 0
8:53 am 08:53 Sunny 24 -4.4 10 -12.2 55 55 WNW 12 19 29.85 1011 10 16.0934 0 0
9:53 am 09:53 Sunny 29 -1.7 13 -10.6 51 51 W 20 31 29.85 1011 10 16.0934 0 0
10:53 am 10:53 Sunny 32 0 14 -10 47 47 WNW 21 33 29.85 1011 10 16.0934 0 0
11:53 am 11:53 Sunny 34 1.1 13 -10.6 42 42 WNW 16 26 29.82 1010 10 16.0934 0 0
12:53 pm 12:53 Sunny 35 1.7 13 -10.6 40 40 W 20 31 29.82 1010 10 16.0934 0 0
1:53 pm 13:53 Sunny 35 1.7 12 -11.1 38 38 W 14 22 29.83 1010 10 16.0934 0 0
2:53 pm 14:53 Sunny 33 0.6 14 -10 45 45 W 9 15 29.85 1011 10 16.0934 0 0
3:53 pm 15:53 Sunny 33 0.6 13 -10.6 43 43 W 12 19 29.89 1012 10 16.0934 0 0
4:53 pm 16:53 Clear 29 -1.7 11 -11.7 47 47 W 14 22 29.93 1013 10 16.0934 0 0
5:53 pm 17:53 Clear 27 -2.8 8 -13.3 45 45 W 8 13 29.97 1015 10 16.0934 0 0
6:53 pm 18:53 Clear 25 -3.9 9 -12.8 50 50 SSW 9 15 29.99 1016 10 16.0934 0 0
7:53 pm 19:53 Clear 20 -6.7 7 -13.9 57 57 SE 7 11 30.01 1016 10 16.0934 0 0
8:53 pm 20:53 Clear 13 -10.6 4 -15.6 67 67 ENE 5 7 30.01 1016 10 16.0934 0 0
9:53 pm 21:53 Clear 12 -11.1 3 -16.1 67 67 E 7 11 30.02 1017 10 16.0934 0 0
10:53 pm 22:53 Clear 11 -11.7 2 -16.7 67 67 E 9 15 30.02 1017 10 16.0934 0 0
11:53 pm 23:53 Clear 13 -10.6 2 -16.7 61 61 E 8 13 30 1016 10 16.0934 0 0

Powered by AerisWeather